Total_Precipitation_Accumulation
0.62 0.63 0.73 0.80 0.79 0.78 0.78 0.73 0.72 0.69 0.69 0.71 0.70 0.70 0.67 0.71 0.87 1.07 1.04 0.95 0.97 1.03 1.11 1.22 1.26 1.28 1.26 1.12 1.08 1.05 1.05 1.14 1.07 0.88 0.83 0.85 0.73 0.59 0.55 0.52 0.49 0.47 0.41
0.41 0.48 0.58 0.69 0.71 0.71 0.73 0.79 0.79 0.75 0.68 0.61 0.61 0.65 0.65 0.71 0.87 1.14 1.27 1.26 1.22 1.12 1.18 1.35 1.43 1.37 1.26 1.16 1.15 1.08 1.07 1.16 1.10 0.99 0.99 0.93 0.85 0.74 0.66 0.60 0.51 0.47 0.46
0.33 0.38 0.48 0.60 0.68 0.70 0.71 0.74 0.77 0.75 0.72 0.69 0.68 0.70 0.75 0.77 0.78 0.94 1.14 1.21 1.21 1.15 1.22 1.27 1.29 1.35 1.29 1.22 1.14 1.07 1.06 1.15 1.18 1.09 1.15 1.15 1.03 0.90 0.79 0.67 0.58 0.57 0.47
0.32 0.41 0.47 0.55 0.66 0.74 0.75 0.76 0.78 0.82 0.79 0.78 0.77 0.80 0.82 0.79 0.79 0.90 1.01 1.08 1.12 1.14 1.18 1.22 1.23 1.23 1.28 1.32 1.22 1.16 1.18 1.22 1.24 1.22 1.24 1.37 1.27 1.08 0.92 0.77 0.66 0.61 0.55
0.34 0.41 0.46 0.54 0.61 0.66 0.74 0.78 0.85 0.88 0.84 0.89 0.95 0.93 0.89 0.82 0.75 0.88 0.98 0.97 1.05 1.09 1.08 1.04 1.10 1.26 1.34 1.37 1.25 1.22 1.28 1.27 1.27 1.32 1.33 1.44 1.46 1.29 1.04 0.80 0.72 0.69 0.64
0.48 0.52 0.52 0.58 0.65 0.65 0.70 0.73 0.84 0.90 0.94 1.02 1.06 1.05 0.96 0.77 0.81 0.91 0.93 0.92 0.96 1.00 1.00 0.95 0.92 0.99 1.11 1.19 1.16 1.12 1.17 1.22 1.28 1.32 1.37 1.46 1.52 1.43 1.24 1.05 0.90 0.78 0.73
0.56 0.68 0.72 0.73 0.77 0.79 0.83 0.85 0.90 1.03 1.10 1.09 1.07 1.08 1.05 1.02 0.96 0.87 0.82 0.79 0.84 0.89 0.90 0.86 0.73 0.69 0.87 0.95 1.05 1.08 1.04 1.03 1.08 1.22 1.35 1.39 1.51 1.57 1.48 1.26 1.15 1.03 0.85
0.78 0.89 0.97 1.01 1.08 1.13 1.18 1.13 1.15 1.22 1.29 1.28 1.22 1.23 1.29 1.24 1.14 0.96 0.88 0.77 0.77 0.80 0.81 0.80 0.79 0.78 0.80 0.87 0.97 1.04 1.03 0.98 0.95 0.99 1.13 1.31 1.47 1.62 1.60 1.47 1.38 1.23 1.02
0.99 1.11 1.17 1.22 1.30 1.35 1.32 1.37 1.46 1.55 1.58 1.59 1.54 1.55 1.55 1.56 1.47 1.23 1.10 0.95 0.92 0.89 0.93 0.96 0.95 0.89 0.87 0.80 0.82 0.86 0.89 0.95 0.91 0.90 0.95 1.14 1.31 1.45 1.59 1.53 1.41 1.24 1.04
0.99 1.09 1.26 1.43 1.54 1.52 1.53 1.64 1.81 1.95 1.90 1.89 1.91 1.91 1.85 1.81 1.69 1.37 1.21 1.07 1.09 1.07 1.12 1.09 0.99 0.86 0.76 0.68 0.71 0.76 0.76 0.77 0.85 0.88 0.88 0.95 1.10 1.22 1.37 1.37 1.24 1.20 1.03
1.18 1.26 1.37 1.53 1.68 1.70 1.77 1.82 1.94 2.05 2.04 2.00 1.92 1.85 1.80 1.80 1.70 1.42 1.30 1.18 1.21 1.24 1.17 1.12 1.05 0.91 0.73 0.66 0.63 0.65 0.67 0.72 0.80 0.85 0.94 1.05 1.18 1.30 1.30 1.27 1.22 1.10 1.00
1.44 1.59 1.64 1.70 1.68 1.64 1.77 1.87 1.95 2.04 2.01 1.96 1.97 1.85 1.75 1.73 1.58 1.39 1.24 1.17 1.26 1.34 1.30 1.21 1.13 0.97 0.74 0.66 0.57 0.56 0.57 0.57 0.71 0.80 0.87 0.98 1.10 1.24 1.32 1.36 1.34 1.19 1.00
1.46 1.55 1.65 1.68 1.71 1.71 1.76 1.84 1.96 2.00 1.98 1.91 1.92 1.92 1.83 1.73 1.66 1.44 1.22 1.09 1.13 1.20 1.32 1.37 1.22 1.05 0.87 0.74 0.72 0.68 0.61 0.57 0.68 0.79 0.79 0.83 0.90 1.03 1.29 1.50 1.59 1.51 1.23
1.17 1.24 1.28 1.38 1.48 1.64 1.81 1.81 1.83 1.90 1.97 2.00 1.98 1.92 1.87 1.82 1.81 1.61 1.38 1.20 1.18 1.25 1.33 1.37 1.23 1.12 0.97 0.84 0.80 0.72 0.63 0.59 0.64 0.72 0.77 0.82 0.92 1.03 1.20 1.38 1.58 1.62 1.45
1.00 1.04 1.12 1.24 1.36 1.51 1.68 1.75 1.69 1.72 1.85 1.85 1.76 1.67 1.61 1.57 1.63 1.56 1.37 1.28 1.26 1.33 1.39 1.46 1.39 1.28 1.19 1.06 0.97 0.91 0.85 0.78 0.72 0.73 0.85 0.91 0.97 0.99 1.07 1.20 1.42 1.53 1.40
0.99 0.97 1.01 1.05 1.17 1.30 1.43 1.49 1.41 1.25 1.26 1.22 1.11 0.99 0.95 0.97 1.07 1.07 1.01 0.96 1.00 1.12 1.23 1.38 1.36 1.27 1.21 1.17 1.12 1.06 1.00 0.93 0.88 0.87 0.91 0.97 0.99 1.01 1.07 1.17 1.28 1.37 1.32
0.99 0.93 0.93 0.95 1.03 1.09 1.16 1.26 1.29 1.14 0.94 0.85 0.73 0.61 0.55 0.58 0.69 0.78 0.82 0.82 0.85 0.90 1.01 1.18 1.18 1.14 1.13 1.15 1.12 1.04 0.97 0.98 1.00 0.97 0.92 0.96 1.01 1.04 1.07 1.14 1.19 1.27 1.29
1.14 1.06 0.97 0.94 0.97 0.99 1.04 1.10 1.16 1.20 1.10 0.90 0.68 0.48 0.42 0.45 0.55 0.70 0.82 0.79 0.82 0.80 0.85 0.99 1.03 1.05 1.07 1.12 1.11 1.10 1.05 1.06 1.08 1.04 1.00 1.02 1.09 1.11 1.09 1.10 1.17 1.19 1.24
1.04 1.06 0.98 0.93 0.94 0.98 1.00 1.03 1.09 1.12 1.17 1.12 0.89 0.61 0.46 0.47 0.56 0.71 0.79 0.76 0.84 0.86 0.87 0.93 0.98 0.99 1.03 1.10 1.11 1.11 1.11 1.13 1.12 1.12 1.12 1.13 1.18 1.23 1.14 1.08 1.14 1.20 1.17
0.78 0.76 0.71 0.75 0.79 0.86 0.92 0.95 0.99 1.06 1.11 1.12 1.00 0.75 0.50 0.44 0.53 0.72 0.80 0.86 0.92 0.94 0.94 0.94 0.99 1.01 1.02 1.02 1.05 1.05 1.08 1.13 1.13 1.13 1.18 1.21 1.21 1.22 1.15 1.11 1.11 1.16 1.11
0.64 0.59 0.48 0.57 0.70 0.76 0.81 0.86 0.87 0.92 0.99 1.01 0.92 0.63 0.41 0.41 0.56 0.72 0.86 0.95 0.95 0.95 0.95 0.94 0.95 0.92 0.93 0.96 0.99 1.01 1.09 1.13 1.12 1.12 1.17 1.22 1.22 1.20 1.15 1.14 1.12 1.12 1.16
0.64 0.63 0.48 0.50 0.63 0.69 0.71 0.83 0.86 0.87 0.90 0.92 0.83 0.58 0.46 0.50 0.65 0.77 0.93 0.98 0.93 0.91 0.88 0.88 0.88 0.87 0.85 0.88 0.97 1.04 1.10 1.12 1.10 1.09 1.12 1.16 1.17 1.16 1.14 1.13 1.15 1.18 1.21
0.54 0.62 0.52 0.48 0.57 0.55 0.63 0.81 0.85 0.84 0.86 0.86 0.72 0.61 0.59 0.69 0.79 0.90 0.99 0.99 0.93 0.90 0.88 0.88 0.85 0.82 0.77 0.78 0.82 0.89 1.01 1.06 1.02 1.00 1.05 1.06 1.07 1.05 1.02 1.00 1.03 1.10 1.14
0.44 0.53 0.47 0.41 0.46 0.54 0.65 0.77 0.83 0.81 0.83 0.85 0.74 0.64 0.65 0.74 0.83 0.89 0.94 0.90 0.83 0.83 0.84 0.80 0.75 0.71 0.69 0.75 0.79 0.75 0.75 0.75 0.75 0.79 0.86 0.90 0.95 0.99 0.96 0.94 0.98 1.02 1.09
0.43 0.49 0.42 0.33 0.35 0.44 0.59 0.71 0.78 0.79 0.79 0.78 0.70 0.63 0.65 0.72 0.79 0.78 0.74 0.72 0.70 0.71 0.68 0.67 0.69 0.68 0.63 0.57 0.58 0.56 0.55 0.51 0.49 0.54 0.66 0.76 0.81 0.90 0.95 0.98 1.03 1.10 1.12
0.38 0.44 0.41 0.32 0.30 0.38 0.52 0.63 0.70 0.74 0.76 0.74 0.70 0.68 0.70 0.73 0.68 0.64 0.63 0.63 0.63 0.63 0.60 0.58 0.59 0.55 0.53 0.49 0.45 0.45 0.42 0.38 0.36 0.40 0.46 0.58 0.68 0.80 0.87 0.90 0.93 1.02 1.08